AAY3036 KSFB-KTYS

Flight info

Callsign AAY3036
Flight time 1h 14m
Altitude 38000
Route WORMS JEEMY ACCHE PAINN SHRKS Q77 TEUFL ODF
Aircraft A320/M-SDE3FGHIRWY/LB1

Departure

Time 2026-04-27 17:49
Airport Orlando Sanford International Airport (KSFB)

Arrival

Time 2026-04-27 19:03
Airport McGhee Tyson Airport (KTYS)
Time Latitude Longitude Altitude Speed Heading
2026-04-27 17:27 28.77617 -81.24483 64 ft 0 kts 224°
2026-04-27 17:32 28.77618 -81.24483 64 ft 0 kts 224°
2026-04-27 17:40 28.77629 -81.24471 62 ft 4 kts 225°
2026-04-27 17:40 28.77642 -81.24453 57 ft 4 kts 215°
2026-04-27 17:41 28.77661 -81.24453 55 ft 3 kts 160°
2026-04-27 17:41 28.77679 -81.24460 56 ft 4 kts 177°
2026-04-27 17:41 28.77704 -81.24456 55 ft 4 kts 180°
2026-04-27 17:41 28.77731 -81.24456 60 ft 4 kts 188°
2026-04-27 17:42 28.77755 -81.24447 56 ft 4 kts 228°
2026-04-27 17:42 28.77763 -81.24429 55 ft 0 kts 270°
2026-04-27 17:44 28.77763 -81.24465 60 ft 6 kts 270°
2026-04-27 17:44 28.77763 -81.24509 61 ft 5 kts 270°
2026-04-27 17:44 28.77763 -81.24542 64 ft 5 kts 270°
2026-04-27 17:44 28.77763 -81.24599 64 ft 9 kts 270°
2026-04-27 17:45 28.77763 -81.24688 64 ft 11 kts 270°
2026-04-27 17:45 28.77783 -81.24764 59 ft 10 kts 313°
2026-04-27 17:45 28.77833 -81.24819 61 ft 14 kts 315°
2026-04-27 17:45 28.77911 -81.24907 60 ft 17 kts 315°
2026-04-27 17:46 28.77992 -81.25006 57 ft 18 kts 313°
2026-04-27 17:46 28.78062 -81.25124 61 ft 19 kts 281°
2026-04-27 17:46 28.78063 -81.25262 60 ft 16 kts 270°
2026-04-27 17:46 28.78063 -81.25384 57 ft 14 kts 270°
2026-04-27 17:47 28.78063 -81.25490 57 ft 13 kts 270°
2026-04-27 17:47 28.78066 -81.25553 57 ft 11 kts 284°
2026-04-27 17:47 28.78149 -81.25585 62 ft 11 kts
2026-04-27 17:47 28.78173 -81.25513 64 ft 11 kts 93°
2026-04-27 17:48 28.78173 -81.25398 64 ft 28 kts 90°
2026-04-27 17:48 28.78177 -81.24889 61 ft 97 kts 89°
2026-04-27 17:48 28.78180 -81.23913 63 ft 147 kts 89°
2026-04-27 17:48 28.78153 -81.22701 407 ft 159 kts 89°
2026-04-27 17:49 28.78093 -81.21469 1193 ft 156 kts 88°
2026-04-27 17:49 28.78043 -81.20224 1831 ft 158 kts 81°
2026-04-27 17:49 28.78408 -81.19099 2371 ft 159 kts 45°
2026-04-27 17:49 28.79425 -81.18571 2729 ft 174 kts
2026-04-27 17:50 28.80622 -81.19031 3023 ft 196 kts 328°
2026-04-27 17:50 28.82989 -81.21255 3566 ft 245 kts 324°
2026-04-27 17:50 28.84375 -81.22510 4061 ft 261 kts 324°
2026-04-27 17:51 28.85818 -81.23815 4815 ft 268 kts 323°
2026-04-27 17:51 28.87287 -81.25149 5628 ft 271 kts 322°
2026-04-27 17:51 28.88758 -81.26496 6504 ft 272 kts 321°
2026-04-27 17:51 28.90221 -81.27839 7311 ft 273 kts 321°
2026-04-27 17:52 28.91706 -81.29204 8116 ft 275 kts 321°
2026-04-27 17:52 28.93199 -81.30579 8969 ft 276 kts 321°
2026-04-27 17:52 28.94699 -81.31960 9792 ft 278 kts 321°
2026-04-27 17:52 28.96217 -81.33358 10382 ft 288 kts 321°
2026-04-27 17:53 28.97840 -81.34854 10598 ft 312 kts 321°
2026-04-27 17:53 28.99577 -81.36455 10976 ft 327 kts 321°
2026-04-27 17:53 29.01416 -81.38041 11532 ft 334 kts 328°
2026-04-27 17:53 29.03453 -81.39276 12171 ft 338 kts 333°
2026-04-27 17:54 29.05567 -81.40480 12828 ft 341 kts 333°
2026-04-27 17:54 29.07704 -81.41700 13492 ft 345 kts 333°
2026-04-27 17:54 29.09949 -81.42709 14109 ft 349 kts 344°
2026-04-27 17:54 29.12357 -81.43164 14640 ft 354 kts 354°
2026-04-27 17:55 29.14821 -81.43387 15226 ft 356 kts 354°
2026-04-27 17:55 29.17297 -81.43616 15817 ft 359 kts 354°
2026-04-27 17:55 29.19796 -81.43853 16378 ft 361 kts 354°
2026-04-27 17:55 29.22277 -81.44091 16953 ft 364 kts 354°
2026-04-27 17:56 29.24808 -81.44331 17539 ft 367 kts 354°
2026-04-27 17:56 29.27358 -81.44573 18105 ft 369 kts 354°
2026-04-27 17:56 29.29927 -81.44818 18635 ft 372 kts 354°
2026-04-27 17:56 29.32516 -81.45065 19110 ft 374 kts 354°
2026-04-27 17:57 29.35120 -81.45310 19591 ft 377 kts 354°
2026-04-27 17:57 29.37741 -81.45556 20061 ft 379 kts 354°
2026-04-27 17:57 29.40382 -81.45808 20529 ft 382 kts 354°
2026-04-27 17:57 29.43034 -81.46063 20991 ft 384 kts 354°
2026-04-27 17:58 29.45708 -81.46320 21466 ft 386 kts 354°
2026-04-27 17:58 29.48356 -81.46574 21917 ft 389 kts 354°
2026-04-27 17:58 29.51060 -81.46829 22364 ft 391 kts 354°
2026-04-27 17:58 29.53781 -81.47087 22796 ft 393 kts 354°
2026-04-27 17:59 29.56516 -81.47348 23224 ft 396 kts 354°
2026-04-27 17:59 29.59270 -81.47612 23652 ft 398 kts 354°
2026-04-27 17:59 29.62040 -81.47871 24011 ft 400 kts 354°
2026-04-27 17:59 29.64827 -81.48124 24368 ft 403 kts 354°
2026-04-27 18:00 29.67588 -81.48371 24711 ft 405 kts 354°
2026-04-27 18:00 29.70404 -81.48623 25059 ft 407 kts 354°
2026-04-27 18:00 29.73233 -81.48877 25395 ft 409 kts 354°
2026-04-27 18:00 29.76073 -81.49133 25732 ft 411 kts 354°
2026-04-27 18:01 29.78929 -81.49390 26062 ft 413 kts 354°
2026-04-27 18:01 29.81301 -81.49605 26329 ft 415 kts 354°
2026-04-27 18:01 29.84183 -81.49868 26643 ft 417 kts 354°
2026-04-27 18:01 29.87079 -81.50133 26961 ft 419 kts 353°
2026-04-27 18:02 29.89957 -81.50663 27264 ft 419 kts 345°
2026-04-27 18:02 29.92717 -81.51617 27563 ft 421 kts 341°
2026-04-27 18:02 29.95522 -81.52626 27872 ft 423 kts 342°
2026-04-27 18:02 29.97837 -81.53456 28130 ft 425 kts 342°
2026-04-27 18:03 30.00666 -81.54468 28426 ft 427 kts 342°
2026-04-27 18:03 30.03510 -81.55484 28723 ft 429 kts 342°
2026-04-27 18:03 30.06371 -81.56506 29010 ft 431 kts 341°
2026-04-27 18:03 30.09217 -81.57522 29292 ft 433 kts 341°
2026-04-27 18:04 30.12064 -81.58541 29559 ft 435 kts 341°
2026-04-27 18:04 30.14943 -81.59574 29809 ft 437 kts 341°
2026-04-27 18:04 30.17813 -81.60608 30060 ft 439 kts 341°
2026-04-27 18:04 30.20734 -81.61660 30302 ft 441 kts 341°
2026-04-27 18:05 30.23674 -81.62716 30534 ft 443 kts 341°
2026-04-27 18:05 30.26623 -81.63773 30775 ft 444 kts 341°
2026-04-27 18:05 30.29564 -81.64822 31117 ft 442 kts 341°
2026-04-27 18:05 30.32500 -81.65869 31472 ft 440 kts 341°
2026-04-27 18:06 30.35412 -81.66913 31829 ft 438 kts 341°
2026-04-27 18:06 30.38277 -81.67949 32177 ft 436 kts 341°
2026-04-27 18:06 30.41161 -81.68993 32548 ft 433 kts 341°
2026-04-27 18:06 30.44031 -81.70033 32912 ft 431 kts 341°
2026-04-27 18:07 30.46890 -81.71066 33276 ft 429 kts 341°
2026-04-27 18:07 30.49733 -81.72093 33617 ft 427 kts 341°
2026-04-27 18:07 30.52548 -81.73109 33982 ft 425 kts 341°
2026-04-27 18:07 30.55369 -81.74126 34317 ft 423 kts 341°
2026-04-27 18:08 30.58171 -81.75138 34617 ft 421 kts 341°
2026-04-27 18:08 30.60968 -81.76150 34885 ft 420 kts 341°
2026-04-27 18:08 30.63766 -81.76939 35135 ft 421 kts 348°
2026-04-27 18:08 30.66646 -81.77516 35379 ft 420 kts 348°
2026-04-27 18:09 30.69432 -81.78074 35613 ft 419 kts 348°
2026-04-27 18:09 30.72301 -81.78647 35865 ft 418 kts 348°
2026-04-27 18:09 30.75166 -81.79218 36071 ft 417 kts 348°
2026-04-27 18:09 30.78025 -81.79787 36171 ft 418 kts 348°
2026-04-27 18:10 30.83822 -81.80943 36186 ft 426 kts 348°
2026-04-27 18:10 30.89647 -81.82110 36188 ft 429 kts 348°
2026-04-27 18:11 30.95529 -81.83291 36191 ft 429 kts 348°
2026-04-27 18:11 31.01408 -81.84472 36191 ft 429 kts 348°
2026-04-27 18:12 31.07284 -81.85663 36193 ft 429 kts 348°
2026-04-27 18:12 31.13121 -81.86845 36196 ft 429 kts 348°
2026-04-27 18:13 31.19005 -81.88029 36202 ft 429 kts 348°
2026-04-27 18:13 31.24891 -81.89215 36215 ft 429 kts 348°
2026-04-27 18:14 31.30774 -81.90408 36231 ft 429 kts 347°
2026-04-27 18:14 31.36614 -81.91592 36245 ft 429 kts 347°
2026-04-27 18:15 31.42501 -81.92784 36262 ft 429 kts 347°
2026-04-27 18:15 31.48382 -81.93976 36273 ft 429 kts 347°
2026-04-27 18:16 31.54264 -81.95173 36271 ft 429 kts 347°
2026-04-27 18:16 31.60102 -81.96365 36270 ft 429 kts 347°
2026-04-27 18:17 31.65980 -81.97564 36260 ft 429 kts 347°
2026-04-27 18:17 31.71862 -81.98765 36249 ft 429 kts 347°
2026-04-27 18:18 31.77740 -81.99963 36235 ft 429 kts 347°
2026-04-27 18:18 31.83585 -82.01151 36220 ft 429 kts 347°
2026-04-27 18:19 31.89321 -82.02934 36228 ft 426 kts 337°
2026-04-27 18:19 31.94866 -82.05385 36233 ft 426 kts 337°
2026-04-27 18:20 32.00424 -82.07820 36243 ft 426 kts 337°
2026-04-27 18:20 32.05954 -82.10241 36240 ft 427 kts 337°
2026-04-27 18:21 32.11522 -82.12683 36241 ft 427 kts 337°
2026-04-27 18:21 32.17096 -82.15124 36236 ft 427 kts 337°
2026-04-27 18:22 32.22671 -82.17574 36227 ft 428 kts 337°
2026-04-27 18:22 32.28210 -82.20029 36238 ft 428 kts 337°
2026-04-27 18:23 32.33792 -82.22500 36233 ft 429 kts 337°
2026-04-27 18:23 32.39379 -82.24970 36231 ft 429 kts 337°
2026-04-27 18:24 32.44973 -82.27446 36227 ft 429 kts 337°
2026-04-27 18:24 32.50533 -82.29912 36221 ft 430 kts 337°
2026-04-27 18:25 32.56138 -82.32396 36216 ft 430 kts 338°
2026-04-27 18:25 32.61747 -82.34886 36207 ft 431 kts 337°
2026-04-27 18:26 32.67358 -82.37391 36208 ft 431 kts 337°
2026-04-27 18:26 32.72934 -82.39883 36209 ft 431 kts 337°
2026-04-27 18:27 32.78558 -82.42394 36213 ft 432 kts 338°
2026-04-27 18:27 32.84182 -82.44903 36215 ft 432 kts 338°
2026-04-27 18:28 32.89806 -82.47424 36216 ft 432 kts 337°
2026-04-27 18:28 32.95396 -82.49934 36215 ft 432 kts 338°
2026-04-27 18:29 33.01034 -82.52451 36217 ft 433 kts 338°
2026-04-27 18:29 33.06665 -82.54978 36219 ft 433 kts 338°
2026-04-27 18:30 33.12299 -82.57519 36219 ft 433 kts 338°
2026-04-27 18:30 33.17900 -82.60040 36222 ft 433 kts 338°
2026-04-27 18:31 33.23533 -82.62587 36236 ft 433 kts 337°
2026-04-27 18:31 33.29168 -82.65139 36248 ft 433 kts 338°
2026-04-27 18:32 33.34805 -82.67683 36259 ft 433 kts 338°
2026-04-27 18:32 33.40439 -82.70232 36266 ft 433 kts 337°
2026-04-27 18:33 33.46040 -82.72773 36268 ft 433 kts 337°
2026-04-27 18:33 33.51676 -82.75336 36267 ft 433 kts 337°
2026-04-27 18:34 33.57311 -82.77910 36252 ft 433 kts 337°
2026-04-27 18:34 33.62944 -82.80481 36259 ft 433 kts 337°
2026-04-27 18:35 33.68544 -82.83030 36266 ft 433 kts 337°
2026-04-27 18:35 33.74178 -82.85601 36264 ft 433 kts 337°
2026-04-27 18:36 33.79811 -82.88176 36266 ft 433 kts 337°
2026-04-27 18:36 33.85436 -82.90761 36264 ft 433 kts 337°
2026-04-27 18:37 33.91034 -82.93325 36260 ft 433 kts 337°
2026-04-27 18:37 33.96664 -82.95915 36267 ft 433 kts 337°
2026-04-27 18:38 34.02286 -82.98514 36267 ft 433 kts 337°
2026-04-27 18:38 34.07915 -83.01109 36267 ft 433 kts 337°
2026-04-27 18:39 34.13506 -83.03672 36262 ft 433 kts 337°
2026-04-27 18:39 34.19135 -83.06269 36259 ft 433 kts 337°
2026-04-27 18:40 34.24752 -83.08875 36234 ft 429 kts 336°
2026-04-27 18:40 34.30231 -83.11414 36239 ft 418 kts 336°
2026-04-27 18:41 34.35619 -83.13919 36250 ft 417 kts 336°
2026-04-27 18:41 34.38331 -83.15183 36039 ft 418 kts 336°
2026-04-27 18:41 34.41048 -83.16448 35796 ft 419 kts 336°
2026-04-27 18:42 34.43772 -83.17714 35555 ft 420 kts 337°
2026-04-27 18:42 34.45583 -83.18556 35399 ft 422 kts 337°
2026-04-27 18:42 34.49258 -83.20267 35083 ft 424 kts 337°
2026-04-27 18:42 34.52025 -83.21560 34408 ft 429 kts 337°
2026-04-27 18:43 34.54835 -83.22873 33462 ft 435 kts 337°
2026-04-27 18:43 34.57666 -83.24194 32631 ft 438 kts 337°
2026-04-27 18:43 34.60478 -83.25504 31861 ft 439 kts 337°
2026-04-27 18:43 34.63311 -83.26822 31342 ft 434 kts 337°
2026-04-27 18:44 34.66120 -83.28133 30763 ft 430 kts 337°
2026-04-27 18:44 34.68906 -83.29439 30132 ft 428 kts 337°
2026-04-27 18:44 34.71697 -83.30669 29511 ft 425 kts 339°
2026-04-27 18:44 34.74492 -83.31761 28933 ft 421 kts 341°
2026-04-27 18:45 34.77290 -83.32770 28349 ft 417 kts 342°
2026-04-27 18:45 34.80070 -83.33739 27782 ft 414 kts 342°
2026-04-27 18:45 34.82791 -83.34688 27229 ft 411 kts 342°
2026-04-27 18:45 34.85526 -83.35663 26661 ft 408 kts 341°
2026-04-27 18:46 34.88231 -83.36649 26127 ft 404 kts 341°
2026-04-27 18:46 34.90911 -83.37640 25581 ft 401 kts 341°
2026-04-27 18:46 34.93567 -83.38631 25064 ft 398 kts 341°
2026-04-27 18:46 34.96205 -83.39623 24554 ft 396 kts 341°
2026-04-27 18:47 34.98825 -83.40611 24072 ft 392 kts 341°
2026-04-27 18:47 35.01422 -83.41589 23559 ft 389 kts 341°
2026-04-27 18:47 35.03960 -83.42538 23083 ft 384 kts 341°
2026-04-27 18:47 35.06499 -83.43484 22638 ft 379 kts 341°
2026-04-27 18:48 35.09005 -83.44417 22183 ft 375 kts 341°
2026-04-27 18:48 35.11484 -83.45343 21742 ft 371 kts 341°
2026-04-27 18:48 35.13949 -83.46267 21300 ft 370 kts 341°
2026-04-27 18:48 35.16400 -83.47185 20856 ft 367 kts 341°
2026-04-27 18:49 35.18833 -83.48095 20403 ft 365 kts 341°
2026-04-27 18:49 35.21260 -83.49000 19946 ft 363 kts 341°
2026-04-27 18:49 35.23668 -83.49900 19489 ft 362 kts 341°
2026-04-27 18:49 35.26040 -83.50786 19034 ft 360 kts 340°
2026-04-27 18:50 35.28434 -83.51685 18571 ft 360 kts 340°
2026-04-27 18:50 35.30827 -83.52584 18067 ft 359 kts 340°
2026-04-27 18:50 35.33207 -83.53479 17602 ft 357 kts 340°
2026-04-27 18:50 35.35576 -83.54369 17153 ft 355 kts 340°
2026-04-27 18:51 35.37933 -83.55255 16688 ft 354 kts 340°
2026-04-27 18:51 35.40279 -83.56141 16216 ft 353 kts 340°
2026-04-27 18:51 35.42638 -83.57035 15631 ft 355 kts 340°
2026-04-27 18:51 35.44964 -83.57912 15195 ft 354 kts 340°
2026-04-27 18:52 35.47313 -83.58797 14756 ft 352 kts 340°
2026-04-27 18:52 35.49646 -83.59679 14308 ft 350 kts 340°
2026-04-27 18:52 35.51973 -83.60561 13849 ft 349 kts 340°
2026-04-27 18:53 35.56534 -83.62296 12936 ft 343 kts 341°
2026-04-27 18:53 35.58835 -83.63170 12512 ft 339 kts 341°
2026-04-27 18:53 35.61054 -83.64006 11849 ft 332 kts 341°
2026-04-27 18:53 35.63256 -83.64834 11093 ft 330 kts 341°
2026-04-27 18:54 35.65419 -83.65654 10315 ft 329 kts 341°
2026-04-27 18:54 35.67596 -83.66480 9743 ft 321 kts 341°
2026-04-27 18:54 35.69609 -83.67240 9558 ft 302 kts 341°
2026-04-27 18:54 35.71586 -83.67989 9040 ft 294 kts 341°
2026-04-27 18:55 35.73531 -83.68730 8419 ft 291 kts 341°
2026-04-27 18:55 35.75459 -83.69466 7804 ft 289 kts 341°
2026-04-27 18:55 35.77376 -83.70202 7184 ft 288 kts 342°
2026-04-27 18:55 35.79266 -83.70932 6563 ft 286 kts 342°
2026-04-27 18:56 35.81143 -83.71646 5881 ft 286 kts 342°
2026-04-27 18:56 35.83031 -83.72361 5281 ft 282 kts 342°
2026-04-27 18:56 35.84897 -83.73064 4688 ft 279 kts 342°
2026-04-27 18:56 35.86708 -83.73749 4417 ft 262 kts 342°
2026-04-27 18:57 35.88395 -83.74390 4245 ft 249 kts 341°
2026-04-27 18:57 35.90024 -83.75010 3880 ft 243 kts 343°
2026-04-27 18:57 35.91634 -83.75625 3526 ft 243 kts 342°
2026-04-27 18:57 35.93231 -83.76242 3275 ft 239 kts 340°
2026-04-27 18:58 35.94610 -83.77290 3141 ft 232 kts 311°
2026-04-27 18:58 35.95193 -83.78362 3035 ft 225 kts 291°
2026-04-27 18:58 35.95374 -83.80782 2961 ft 212 kts 255°
2026-04-27 18:58 35.94737 -83.82360 2952 ft 205 kts 229°
2026-04-27 18:59 35.93741 -83.83608 2953 ft 203 kts 224°
2026-04-27 18:59 35.92744 -83.84825 2954 ft 201 kts 224°
2026-04-27 18:59 35.91775 -83.86013 2974 ft 188 kts 224°
2026-04-27 18:59 35.90889 -83.87099 2952 ft 171 kts 224°
2026-04-27 19:00 35.90077 -83.88093 2940 ft 159 kts 223°
2026-04-27 19:00 35.89305 -83.89038 2933 ft 153 kts 224°
2026-04-27 19:00 35.88576 -83.89932 2819 ft 147 kts 224°
2026-04-27 19:00 35.87854 -83.90813 2656 ft 146 kts 224°
2026-04-27 19:01 35.87140 -83.91687 2464 ft 144 kts 224°
2026-04-27 19:01 35.86428 -83.92557 2292 ft 144 kts 224°
2026-04-27 19:01 35.85719 -83.93424 2108 ft 144 kts 224°
2026-04-27 19:01 35.85013 -83.94287 1913 ft 142 kts 225°
2026-04-27 19:02 35.84314 -83.95140 1724 ft 141 kts 225°
2026-04-27 19:02 35.83609 -83.96001 1537 ft 142 kts 225°
2026-04-27 19:02 35.82925 -83.96856 1369 ft 141 kts 226°
2026-04-27 19:02 35.82224 -83.97693 1172 ft 137 kts 225°
2026-04-27 19:03 35.81558 -83.98512 985 ft 133 kts 225°
2026-04-27 19:03 35.80985 -83.99211 961 ft 82 kts 224°
2026-04-27 19:03 35.80771 -83.99470 958 ft 23 kts 225°
2026-04-27 19:03 35.80702 -83.99533 958 ft 17 kts 191°
2026-04-27 19:04 35.80636 -83.99428 966 ft 10 kts 104°
2026-04-27 19:04 35.80620 -83.99366 967 ft 6 kts 74°
2026-04-27 19:04 35.80647 -83.99337 965 ft 5 kts 38°
2026-04-27 19:04 35.80678 -83.99303 966 ft 8 kts 44°
2026-04-27 19:05 35.80711 -83.99262 966 ft 6 kts 46°
2026-04-27 19:05 35.80710 -83.99212 967 ft 7 kts 132°
2026-04-27 19:05 35.80681 -83.99186 965 ft 1 kts 144°
2026-04-27 19:05 35.80677 -83.99182 964 ft 0 kts 144°
2026-04-27 19:06 35.80676 -83.99182 964 ft 0 kts 144°